Regional Weather Roundup
Issued by NWS

Home | Current Version | Previous Version | Graphics & Text | Print | Product List | Glossary On
Versions: 1 2 3 4 5 6 7 8 9 10 11 12 13 14 15 16 17 18 19 20 21 22 23 24 25 26 27 28 29 30 31 32 33 34 35 36 37 38 39 40 41 42 43 44 45 46 47 48 49 50
000
ASUS45 KPSR 280610
RWRAZ

ARIZONA HOURLY REGIONAL WEATHER ROUNDUP
NATIONAL WEATHER SERVICE PHOENIX AZ
1100 PM MST THU AUG 27 2015

NOTE: FAIR INDICATES FEW OR NO CLOUDS BELOW 12,000 FEET WITH NO
SIGNIFICANT WEATHER AND/OR OBSTRUCTIONS TO VISIBILITY.

AZZ001>003-036-280700-
NORTHWEST ARIZONA

CITY           SKY/WX    TMP DP  RH WIND       PRES   REMARKS
BULLHEAD CITY  PTCLDY    95  59  30 S6        29.87S
KINGMAN        MOCLDY    78  57  48 E6        30.10S
6HR MIN TEMP:  78; 6HR MAX TEMP:  95;

$$

AZZ004>008-015-016-018-280700-
NORTH CENTRAL ARIZONA

CITY           SKY/WX    TMP DP  RH WIND       PRES   REMARKS
GRAND CANYON   PTCLDY    55  45  68 CALM      30.35S
6HR MIN TEMP:  55; 6HR MAX TEMP:  81;

WILLIAMS       CLOUDY    61  55  82 SE7       30.41S
PRESCOTT       CLOUDY    69  60  73 SW7       30.23S
6HR MIN TEMP:  68; 6HR MAX TEMP:  78; 6HR PCP: TRACE;

FLAGSTAFF      CLOUDY    57  56  96 CALM      30.37F
6HR MIN TEMP:  56; 6HR MAX TEMP:  64;

PAYSON         MOCLDY    66  61  82 E6        30.25S
PAGE           PTCLDY    78  53  41 W3        30.14F
6HR MIN TEMP:  77; 6HR MAX TEMP:  91;

$$

AZZ009>014-017-280700-
NORTHEAST ARIZONA

CITY           SKY/WX    TMP DP  RH WIND       PRES   REMARKS
WINSLOW        MOCLDY    66  57  72 SW3       30.20F
6HR MIN TEMP:  65; 6HR MAX TEMP:  80;

SAINT JOHNS    CLOUDY    64  60  87 CALM      30.25F
6HR MIN TEMP:  64; 6HR MAX TEMP:  75;

WINDOW ROCK    PTCLDY    61  53  75 CALM      30.33S
6HR MIN TEMP:  61; 6HR MAX TEMP:  79;

SHOW LOW       MOCLDY    61  52  72 S8        30.32F
$$

AZZ023-280700-
GREATER PHOENIX AREA

CITY           SKY/WX    TMP DP  RH WIND       PRES   REMARKS
PHOENIX        MOCLDY    86  74  67 E5        29.92R
6HR MIN TEMP:  82; 6HR MAX TEMP:  91; 6HR PCP:  0.03;

BUCKEYE        PTCLDY    82  73  74 N7        29.92R
LUKE AFB       MOCLDY    83  74  73 NW3       29.92R
6HR MIN TEMP:  83; 6HR MAX TEMP:  88; 6HR PCP: TRACE;

DEER VALLEY    MOCLDY    88  61  40 N3        29.95R
6HR MIN TEMP:  86; 6HR MAX TEMP:  93; 6HR PCP: TRACE;

SCOTTSDALE     PTCLDY    87  59  38 SE3       29.96R
6HR MIN TEMP:  84; 6HR MAX TEMP:  90; 6HR PCP: TRACE;

MESA-GATEWAY   MOCLDY    82  61  47 VRB6      29.97R
$$

AZZ027-028-280700-
SOUTHWEST MARICOPA COUNTY AND PINAL COUNTY

CITY           SKY/WX    TMP DP  RH WIND       PRES   REMARKS
CASA GRANDE    CLEAR     86  61  42 CALM      29.94S
6HR MIN TEMP:  86; 6HR MAX TEMP:  99;

GILA BEND      MOCLDY    89  61  38 NW3       29.88S
6HR MIN TEMP:  89; 6HR MAX TEMP:  97; 6HR PCP: TRACE;

$$

AZZ503-504-507>509-280700-
SOUTHEAST ARIZONA

CITY           SKY/WX    TMP DP  RH WIND       PRES   REMARKS
TUCSON         CLOUDY    81  61  50 SE7       30.05F
6HR MIN TEMP:  77; 6HR MAX TEMP:  98; 6HR PCP: TRACE;

DAVIS-MONTHAN  PTCLDY    78  61  55 SE9       30.04S
6HR MIN TEMP:  78; 6HR MAX TEMP:  97; 6HR PCP: TRACE;

NOGALES        CLOUDY    75  56  51 E6        30.16F
6HR MIN TEMP:  74; 6HR MAX TEMP:  89;

SIERRA VISTA   CLOUDY    68  63  83 S7        30.23F
                                      6HR PCP:  0.09;

DOUGLAS        CLOUDY    70  58  65 N13       30.17S
6HR MIN TEMP:  70; 6HR MAX TEMP:  84;

SAFFORD        CLOUDY    73  66  78 N6        30.07S
6HR MIN TEMP:  72; 6HR MAX TEMP:  88; 6HR PCP:  0.02;

$$

AZZ020-021-025-026-031-280700-
SOUTHWEST ARIZONA

CITY           SKY/WX    TMP DP  RH WIND       PRES   REMARKS
YUMA           PTCLDY    94  69  44 S9        29.83S
6HR MIN TEMP:  94; 6HR MAX TEMP: 109;

$$

CAZ031-033-041-043-047-048-061-280700-
SOUTHERN CALIFORNIA

CITY           SKY/WX    TMP DP  RH WIND       PRES   REMARKS
DOWNTOWN L.A.  CLEAR     76  64  66 CALM      29.90F
6HR MIN TEMP:  76; 6HR MAX TEMP:  88;

L.A. AIRPORT   CLEAR     76  65  68 VRB3      29.91F
6HR MIN TEMP:  75; 6HR MAX TEMP:  81;

SAN DIEGO      CLEAR     77  66  68 SW3       29.92F
6HR MIN TEMP:  77; 6HR MAX TEMP:  87;

BURBANK        CLEAR     79  61  53 E5        29.93S
6HR MIN TEMP:  79; 6HR MAX TEMP:  97;

ONTARIO        CLEAR     82  53  36 NW6       29.94F
6HR MIN TEMP:  81; 6HR MAX TEMP:  99;

RIVERSIDE      CLEAR     82  56  40 W5        29.94F
6HR MIN TEMP:  82; 6HR MAX TEMP: 100;

PALM SPRINGS   CLEAR     98  56  24 NW13      29.86S
6HR MIN TEMP:  98; 6HR MAX TEMP: 110;

EL CENTRO NAS  PTCLDY    96  54  24 S8        29.81S
6HR MIN TEMP:  95; 6HR MAX TEMP: 108;

IMPERIAL       CLEAR     98  54  22 SW8       29.79S
6HR MIN TEMP:  98; 6HR MAX TEMP: 109;

BLYTHE         CLEAR     96  66  37 S3        29.83F
6HR MIN TEMP:  96; 6HR MAX TEMP: 107;

NEEDLES        PTCLDY    98  59  27 CALM      29.87F
6HR MIN TEMP:  97; 6HR MAX TEMP: 109;

$$

NVZ020-UTZ003-280700-
SOUTHERN NEVADA-UTAH

CITY           SKY/WX    TMP DP  RH WIND       PRES   REMARKS
LAS VEGAS      PTCLDY    92  50  23 SW3       29.94S
6HR MIN TEMP:  92; 6HR MAX TEMP: 101;

SALT LAKE CITY PTCLDY    75  44  33 S10       30.16S
6HR MIN TEMP:  71; 6HR MAX TEMP:  87;

$$

NMZ009-TXZ055-280700-
NEW MEXICO-WEST TEXAS

CITY           SKY/WX    TMP DP  RH WIND       PRES   REMARKS
ALBUQUERQUE    MOCLDY    70  54  56 S6        30.21S
6HR MIN TEMP:  70; 6HR MAX TEMP:  82;

EL PASO        MOCLDY    84  56  38 CALM      30.07F
6HR MIN TEMP:  84; 6HR MAX TEMP:  93;

$$


........................KEY........................
SKY/WX - SKY CONDITION/WEATHER
TMP    - TEMPERATURE IN FAHRENHEIT
DP     - DEW POINT IN FAHRENHEIT
RH     - RELATIVE HUMIDITY IN PERCENT
WIND   - DIRECTION AND SPEED IN MILES PER HOUR (MPH)
VRB    - VARIABLE WIND DIRECTION
PRES   - MEAN SEA LEVEL PRESSURE IN INCHES OF MERCURY
         F - FALLING PRESSURE   R - RISING PRESSURE
         S - STEADY PRESSURE
VSB    - VISIBILITY IN MILES
HX     - HEAT INDEX IN FAHRENHEIT
WCI    - WIND CHILL INDEX IN FAHRENHEIT
TC     - TEMPERATURE IN CELSIUS WHICH IS ALSO KNOWN AS
         TEMPERATURE IN CENTIGRADE
AFB    - AIR FORCE BASE
         LUKE AFB IS LUKE AIR FORCE BASE
         DAVIS-MONTHAN IS DAVIS-MONTHAN AIR FORCE BASE
NAS    - NAVAL AIR STATION
         EL CENTRO NAS IS EL CENTRO NAVAL AIR STATION
N/A    - NOT AVAILABLE



USA.gov is the U.S. government's official web portal to all federal, state and local government web resources and services.